Temp
10 10 10 10 10 10 10 10 9 9 9 9 9 10 14 16 17 15 13 22 23 24 23 23 22 22 22 21 22 21 19 20 24 24 25 26 25 24 23 22 23 22 21 21 19
10 10 10 10 10 10 10 10 9 9 9 9 9 11 15 14 13 13 25 24 24 24 23 22 21 21 20 21 21 21 18 21 24 24 24 25 24 24 23 22 20 20 20 20 19
10 10 10 10 10 10 10 10 9 9 9 9 10 14 15 11 12 20 27 26 24 23 23 23 24 22 22 22 22 22 22 25 25 26 26 24 24 23 21 21 21 20 19 19 18
10 10 10 10 10 10 10 10 9 9 9 9 12 14 14 12 21 25 26 26 25 23 23 23 22 23 22 23 23 24 23 24 25 24 24 23 24 23 23 22 21 22 20 20 19
10 10 11 10 10 10 10 9 9 9 9 12 13 14 13 15 19 26 26 26 25 23 22 22 22 22 23 23 23 24 25 25 22 23 23 24 24 25 24 21 21 22 21 21 21
12 11 13 11 11 11 10 9 9 9 12 14 14 14 13 19 26 25 26 26 25 23 22 22 23 23 24 24 24 23 24 24 24 24 24 25 25 25 22 19 20 21 21 21 21
12 13 12 12 12 10 9 9 9 13 14 14 14 13 14 20 26 26 26 26 26 25 22 24 25 25 23 23 24 22 24 24 25 25 25 24 25 23 21 20 21 21 21 20 21
14 14 13 13 13 11 11 10 13 15 15 15 14 12 18 26 26 27 27 27 27 26 26 28 27 25 26 24 22 23 21 22 24 24 23 24 22 24 19 19 20 20 20 19 18
14 14 14 14 14 14 14 12 16 15 14 14 13 13 20 26 26 28 27 28 28 27 27 28 26 22 22 21 20 20 21 23 24 22 24 24 23 21 19 20 17 17 16 17 16
15 15 15 15 15 16 14 15 14 13 13 12 13 17 22 25 27 28 28 28 27 26 25 23 20 21 19 20 21 23 23 22 22 23 22 23 19 16 16 16 15 14 14 14 14
15 15 16 16 16 16 15 14 13 15 12 19 21 21 22 25 27 27 27 27 25 22 22 22 21 22 23 23 24 24 23 22 21 22 18 17 16 15 16 16 15 15 15 15 14
16 16 16 17 16 15 15 15 20 21 20 19 19 20 23 25 25 25 27 25 24 23 24 21 22 24 22 22 24 23 22 22 20 19 18 17 16 16 16 16 16 15 15 15 14
16 16 17 17 16 15 17 20 21 21 19 22 22 23 25 25 24 25 26 24 24 24 23 21 24 24 22 21 22 21 22 22 21 19 19 19 17 17 18 16 16 15 14 14 14
17 17 17 18 14 18 18 21 21 21 17 21 24 26 26 25 25 26 26 25 23 21 21 22 21 22 22 22 21 22 23 22 20 19 18 19 15 19 17 16 16 15 15 14 15
17 17 18 18 18 17 21 22 22 21 15 22 24 26 25 25 25 25 25 24 24 23 22 22 22 22 22 23 23 22 23 22 22 19 18 19 16 17 17 16 16 15 15 15 14
17 18 18 18 18 21 22 22 22 14 17 23 24 24 24 24 24 24 23 21 23 21 20 22 22 23 23 23 23 23 21 19 17 17 16 20 16 16 15 16 16 16 15 15 13
18 19 19 18 19 21 23 19 14 14 22 22 22 23 23 23 23 22 21 20 20 20 19 20 21 21 22 23 22 20 19 16 17 14 15 18 17 16 17 17 16 16 14 13 12
18 19 20 21 21 22 23 16 18 20 21 23 23 22 23 22 21 21 20 19 20 20 18 19 18 21 21 22 22 20 19 15 18 14 18 18 17 17 17 17 16 15 14 13 14
18 19 19 21 22 23 15 13 16 19 23 22 22 22 22 23 21 20 19 19 20 20 20 19 20 22 22 22 21 21 17 18 14 12 14 15 18 18 17 16 16 16 14 12 11
19 18 20 21 22 21 14 14 18 20 23 23 22 21 21 22 21 20 20 20 20 19 19 20 20 21 22 22 21 20 19 17 12 16 14 15 17 15 16 16 17 14 12 11 10
19 15 19 21 23 13 13 15 19 22 23 24 21 21 21 21 20 19 19 19 19 19 19 19 18 19 20 20 20 19 19 15 14 12 13 12 14 15 16 16 14 12 11 11 10
15 15 18 20 15 11 15 18 20 23 22 22 21 22 21 20 18 18 19 19 17 19 20 18 15 13 20 19 20 20 19 15 12 16 9 9 14 15 15 14 13 12 11 10 9
13 14 17 20 12 8 16 19 21 22 22 22 22 21 20 18 18 18 18 18 17 18 19 18 14 13 16 18 18 20 19 15 12 10 13 10 13 14 13 13 13 11 10 9 9
13 13 13 12 12 16 19 20 21 21 22 22 21 20 19 18 16 17 18 18 18 17 14 15 14 15 14 17 16 19 19 16 15 11 12 11 15 14 12 11 10 10 9 8 9
13 13 14 11 12 16 18 19 20 21 22 21 22 21 19 19 18 17 17 18 18 16 15 15 15 15 15 14 17 18 18 16 16 15 14 15 14 14 12 11 10 9 9 9 9
14 13 12 13 15 16 16 19 19 21 21 21 20 19 19 16 18 16 16 17 18 15 14 11 12 12 15 13 13 16 16 15 15 16 15 13 13 12 11 10 10 9 9 9 10
15 15 14 10 13 14 13 18 19 19 18 18 17 16 16 16 15 14 14 14 15 15 11 9 7 10 12 9 11 12 14 15 16 16 14 12 13 10 10 10 9 8 8 9 9
Height
808 805 803 803 803 802 801 801 801 800 798 797 796 794 793 792 789 787 783 776 776 780 781 782 784 784 785 786 785 786 813 819 802 801 801 783 791 788 786 793 794 796 796 801 809
805 802 800 800 800 799 798 799 798 797 797 795 794 792 792 790 787 782 767 772 774 777 779 782 784 784 790 789 788 796 819 806 786 788 792 786 785 788 795 798 803 801 802 806 809
801 799 797 797 797 796 796 796 796 796 795 793 792 791 791 790 789 768 764 768 772 776 777 780 781 783 790 787 787 792 800 783 780 777 779 787 793 789 799 804 798 803 808 810 811
796 794 792 794 793 793 793 794 795 794 792 791 789 790 790 790 791 764 764 766 770 774 776 778 780 785 790 791 784 792 782 781 780 777 784 792 788 794 793 794 790 792 799 808 811
791 790 789 790 789 789 790 792 792 792 790 789 788 789 790 790 777 765 764 765 767 770 771 775 780 782 788 783 783 787 781 779 779 780 783 785 791 791 792 791 794 798 803 805 808
788 787 785 786 786 787 788 790 790 789 788 787 787 787 789 789 764 764 764 764 765 767 768 771 768 768 775 778 783 782 784 783 780 783 784 791 791 789 794 795 798 799 803 805 806
785 784 783 783 784 785 786 787 788 786 786 786 786 787 788 773 762 763 762 761 761 761 763 760 760 767 770 779 774 784 794 789 787 785 788 788 798 801 795 797 800 801 803 805 807
782 781 781 781 782 782 784 785 785 785 785 784 784 786 779 763 762 760 761 760 759 760 759 757 757 761 763 769 782 791 802 814 794 790 793 794 819 796 798 800 805 806 810 814 815
780 779 779 779 780 781 782 783 785 784 784 785 785 785 777 762 761 759 760 758 756 759 758 754 754 769 772 792 808 809 819 810 801 793 794 797 808 806 803 806 815 816 817 817 818
777 776 776 778 778 780 781 783 784 784 785 785 786 788 767 764 759 758 759 757 756 756 757 761 772 785 794 803 825 811 809 812 810 799 801 803 820 821 814 814 822 823 822 823 823
775 774 775 776 777 779 781 784 789 788 785 775 773 771 766 761 760 757 758 757 758 763 782 777 793 801 793 790 790 791 802 809 807 798 817 831 833 833 826 823 825 827 827 827 828
773 773 774 776 776 779 781 781 776 777 780 767 770 769 764 762 765 760 760 767 768 784 777 791 798 786 788 790 789 795 804 809 809 808 816 830 840 838 833 834 833 832 832 831 832
772 773 774 775 776 779 778 775 774 773 781 770 764 764 759 760 766 764 761 766 774 782 785 798 791 780 790 800 801 807 808 802 813 819 820 821 845 845 839 838 836 837 836 835 835
772 773 774 773 780 776 775 773 772 772 801 784 769 761 758 758 769 760 759 766 776 793 791 796 791 792 798 803 802 810 797 800 813 821 842 824 871 847 848 848 844 843 840 840 839
770 771 772 775 773 775 773 771 771 773 837 780 769 758 758 766 767 766 762 765 781 785 791 804 798 800 803 801 797 805 796 802 808 826 832 837 857 853 851 853 848 845 842 839 843
769 770 771 773 773 771 770 769 772 815 824 781 768 770 771 768 769 768 770 768 774 790 793 797 790 793 796 793 793 794 808 817 825 834 860 832 850 858 852 845 847 845 843 842 841
768 769 771 771 771 770 769 770 816 831 779 786 781 774 776 779 779 781 790 796 801 814 817 806 805 798 793 798 797 805 819 850 851 867 865 835 844 846 836 837 841 841 844 842 841
767 768 769 769 769 769 769 793 810 789 785 771 774 779 785 781 789 790 796 806 799 801 819 824 836 806 798 801 806 811 819 849 852 873 848 836 847 839 830 832 834 836 836 840 843
766 767 768 769 769 769 783 822 806 790 771 775 778 787 787 782 788 795 802 805 801 799 813 823 820 800 797 796 801 809 831 821 853 867 861 857 840 831 832 836 836 835 840 845 847
764 766 767 768 769 771 798 808 788 772 766 769 788 785 795 789 793 800 802 801 801 800 798 807 823 807 801 798 801 806 812 836 855 861 871 859 849 851 839 837 833 840 846 848 849
763 771 767 767 770 784 810 801 780 764 762 769 781 786 785 792 794 803 808 804 801 799 799 804 818 821 809 816 819 819 823 836 846 865 873 883 856 832 830 831 838 844 845 848 850
762 780 767 767 789 802 797 784 771 766 762 766 771 774 785 789 801 804 806 804 802 799 805 807 827 849 821 811 807 809 819 834 865 853 883 889 856 827 826 832 836 843 847 851 853
767 772 768 767 803 818 788 778 771 768 769 769 774 775 778 793 807 804 805 802 802 802 806 807 833 854 840 824 816 814 817 832 846 864 860 886 860 832 832 837 841 843 848 851 853
765 782 776 775 782 785 783 780 776 767 769 769 774 775 784 796 800 808 807 803 801 803 809 809 827 834 848 832 829 823 821 829 836 867 857 862 838 837 841 842 847 850 851 852 853
760 770 766 791 788 780 779 778 778 778 769 769 775 778 787 800 803 808 806 805 804 805 810 815 830 829 832 833 824 822 823 831 834 836 847 836 840 834 840 843 846 848 851 851 853
759 764 767 774 772 779 782 779 778 774 773 777 783 785 785 801 797 808 805 807 806 811 818 827 843 841 834 839 839 829 827 831 831 828 832 836 838 833 839 844 847 848 849 850 849
750 751 755 781 779 783 787 774 775 773 778 777 782 792 798 796 795 799 802 806 806 812 829 841 857 856 852 859 850 851 829 823 819 821 828 842 829 836 842 842 845 848 848 847 846
Wind_Speed
18 17 17 17 16 15 13 14 14 14 14 13 13 13 13 14 15 10 9 14 10 13 6 7 9 5 2 1 2 2 4 1 3 8 7 4 4 2 2 8 1 2 5 18 31
20 19 18 18 17 15 13 13 13 13 12 13 12 11 12 12 13 14 23 17 13 10 14 11 6 6 1 3 1 4 4 8 5 8 7 4 9 8 5 3 5 8 12 26 32
21 20 19 19 18 15 14 13 13 13 12 11 11 9 10 9 4 8 9 14 18 11 13 10 3 5 3 3 3 3 4 3 2 8 11 8 5 3 10 3 6 14 14 17 23
22 20 19 19 17 14 13 12 13 12 11 10 8 8 7 1 3 2 2 11 17 14 13 5 3 4 4 4 4 3 7 2 5 6 6 9 6 5 2 8 9 21 22 19 13
21 20 17 18 15 13 12 12 11 11 10 9 7 6 0 3 8 5 4 6 14 20 16 7 6 6 5 5 2 4 3 1 6 8 6 6 4 6 3 7 10 16 17 18 16
18 18 15 15 13 11 11 12 12 11 9 7 6 2 2 4 5 3 6 10 11 19 9 12 8 8 3 7 7 6 1 4 4 6 5 6 2 1 4 7 10 16 16 15 15
16 14 13 13 12 11 12 12 11 9 7 5 4 3 2 12 3 15 9 14 15 19 6 19 18 4 5 4 4 8 5 4 2 1 3 5 2 4 5 9 15 15 16 11 11
13 12 11 11 12 11 12 11 9 7 4 5 3 4 6 8 14 14 6 7 3 12 19 5 12 6 2 4 7 5 5 3 5 3 2 5 7 3 9 12 11 6 3 6 6
12 10 10 10 9 9 9 8 6 3 2 2 2 2 8 10 6 5 2 3 8 6 8 1 5 4 6 5 5 6 3 2 3 6 2 3 3 7 6 5 7 6 7 6 7
11 9 8 10 9 9 8 6 2 2 2 2 3 2 6 2 4 3 2 5 2 4 5 9 6 4 4 5 4 3 3 3 6 5 5 1 5 8 6 10 8 8 8 9 9
8 8 9 10 11 11 11 4 1 1 4 7 3 3 5 5 2 4 5 6 5 7 4 3 6 2 4 1 4 2 3 6 4 3 9 5 9 10 8 13 11 9 10 11 11
7 9 11 13 13 11 6 3 3 2 4 9 4 6 12 8 1 3 2 3 5 2 2 7 2 0 6 5 2 5 4 2 8 10 12 13 13 8 8 5 6 10 10 12 9
8 10 13 14 12 9 7 7 3 8 1 5 5 4 4 7 3 1 2 2 3 1 2 5 2 3 5 6 5 4 1 3 8 10 8 14 9 7 6 7 8 7 5 7 10
9 13 14 13 7 4 5 3 6 3 4 5 3 3 2 3 3 1 2 3 4 5 7 6 5 5 5 5 2 3 2 4 10 6 5 4 3 1 3 4 4 4 6 7 7
11 15 13 11 2 3 2 6 2 4 4 4 3 2 3 4 3 4 6 4 4 4 5 3 2 5 5 1 2 3 2 2 4 4 5 4 5 3 5 3 4 5 5 6 5
11 14 14 11 5 1 7 4 4 6 2 1 2 1 3 3 1 2 6 8 3 6 7 3 0 3 1 0 0 3 4 6 4 3 3 2 5 5 8 7 5 3 4 5 7
12 14 13 6 1 5 5 4 5 4 1 4 4 3 2 1 5 4 4 5 4 5 3 5 4 5 2 2 2 5 5 3 3 3 4 2 2 6 13 10 8 11 8 8 8
13 14 8 4 2 4 5 5 1 3 5 2 4 3 4 4 3 4 3 3 5 4 3 3 4 4 5 2 1 3 4 5 5 3 2 4 0 3 5 9 11 7 10 5 4
14 12 2 4 3 3 6 3 6 5 3 6 4 3 2 2 5 5 3 2 2 2 5 4 1 3 1 2 2 1 4 3 6 3 3 3 3 5 5 6 8 10 6 6 7
12 7 3 6 3 7 4 5 4 4 1 4 5 4 5 4 4 4 1 2 1 3 2 5 4 2 4 3 4 5 4 4 4 3 1 2 3 4 8 10 5 5 9 8 8
7 3 3 7 4 5 3 5 4 4 1 2 5 4 4 5 4 2 1 2 2 4 4 3 3 4 2 3 1 4 2 6 5 3 4 2 5 5 10 8 7 8 10 10 8
6 3 1 8 3 1 3 4 5 3 5 4 4 3 4 4 4 3 4 1 4 1 2 1 5 3 1 5 3 1 3 4 4 3 1 4 5 4 7 9 12 11 9 7 6
4 2 3 2 4 2 4 4 1 1 3 2 3 2 2 5 6 2 3 1 3 3 3 2 2 3 6 6 5 2 2 5 6 3 4 5 5 4 7 7 5 13 10 7 6
4 2 3 3 1 7 3 4 1 3 2 3 3 5 5 5 6 4 2 2 1 3 4 5 3 5 6 5 3 3 2 3 4 3 3 5 4 3 3 8 7 6 6 7 6
2 5 5 3 2 4 5 2 3 2 1 3 4 3 5 4 3 3 2 1 4 2 4 4 4 1 3 4 1 1 3 5 6 4 6 6 7 7 9 10 8 7 6 6 5
4 4 3 2 7 6 3 6 7 2 3 1 6 1 2 6 6 8 6 2 2 6 4 4 3 1 1 6 6 3 5 6 5 3 5 4 2 2 4 6 6 7 7 6 5
3 2 5 3 4 6 5 6 8 5 5 3 9 5 5 2 4 5 5 6 5 5 3 4 5 3 3 4 5 6 7 6 4 2 6 6 7 8 6 9 8 8 7 6 6
Wind_Direction
286 283 283 280 275 273 273 269 271 274 277 284 290 298 302 300 300 282 237 241 239 226 168 168 203 216 193 304 207 101 58 202 224 119 141 201 140 122 46 128 350 352 118 149 154
282 281 279 277 273 273 270 269 270 273 274 278 286 296 299 310 313 260 262 243 235 246 197 195 188 160 102 240 223 111 130 217 202 142 174 167 135 133 100 128 34 72 76 138 151
282 280 277 273 269 267 265 266 269 267 267 273 281 294 293 328 304 247 243 226 221 216 203 208 159 147 194 198 192 180 221 186 248 159 154 168 166 83 125 348 171 145 144 156 153
280 278 272 268 264 262 260 260 259 258 260 266 276 281 308 320 264 289 292 216 213 211 210 207 160 181 200 201 197 186 265 264 169 136 128 157 135 119 133 195 175 154 158 159 166
280 274 269 264 260 255 254 253 249 248 252 258 262 282 69 227 254 342 283 193 195 203 198 190 179 172 190 184 93 185 196 45 114 106 116 105 125 178 230 161 150 142 156 168 176
280 273 269 261 254 248 245 242 239 240 247 248 260 304 195 255 231 241 345 198 200 197 197 195 219 208 204 204 151 176 185 119 76 126 140 122 124 101 56 121 138 154 174 177 183
278 275 266 257 248 241 233 230 230 238 238 248 265 160 230 240 258 307 309 223 228 210 197 225 226 145 163 135 149 129 79 28 23 110 115 118 48 167 134 147 156 176 184 186 200
277 271 259 245 238 230 227 221 226 225 242 265 227 162 250 284 313 295 285 253 295 225 223 235 209 175 138 141 34 74 55 104 285 115 34 94 249 230 147 145 184 169 34 52 43
271 262 249 236 230 226 212 207 205 221 247 140 110 200 267 310 267 299 257 301 329 161 209 272 97 77 32 77 39 10 153 164 299 193 69 119 266 0 68 115 85 79 69 85 65
262 251 235 221 207 191 180 166 103 72 123 92 280 319 269 254 258 270 258 356 356 345 20 35 46 79 49 74 196 211 167 184 201 188 54 25 20 6 40 99 108 90 77 78 70
249 231 211 194 179 165 150 146 128 13 212 196 206 232 282 279 281 285 11 358 22 44 56 6 61 102 62 86 180 185 162 219 250 110 73 44 49 20 20 93 100 87 84 77 68
229 211 185 176 165 163 165 225 202 204 313 229 211 285 273 255 193 333 37 61 36 62 333 22 65 195 85 61 68 67 115 65 61 82 88 75 46 38 29 45 86 103 93 92 86
213 199 171 168 155 172 220 241 221 322 98 298 191 203 218 149 126 163 95 161 93 75 55 127 303 45 85 45 78 38 81 88 109 83 85 88 39 7 15 37 62 53 86 82 108
199 191 171 149 154 187 236 348 353 99 68 288 318 263 31 102 58 264 100 120 53 128 114 75 334 102 73 81 89 51 330 80 120 101 169 78 137 341 25 46 47 85 113 127 143
192 186 171 162 108 205 336 333 15 71 77 257 262 271 43 93 161 349 40 42 124 155 90 238 84 77 69 104 126 189 61 83 111 110 101 25 92 236 138 162 175 205 178 155 196
182 171 169 203 271 256 323 3 91 45 242 216 178 175 61 20 57 92 39 39 106 71 47 85 178 78 209 343 213 137 89 40 53 89 58 235 124 209 191 192 183 229 223 198 157
177 171 171 176 235 335 348 52 39 124 172 176 171 143 133 77 39 63 50 29 97 85 18 10 348 315 45 97 8 73 78 22 14 14 197 297 93 219 203 168 185 184 194 207 195
186 178 188 213 10 351 52 49 213 222 203 170 119 92 145 134 17 42 79 60 27 89 113 121 356 2 334 89 210 56 135 149 181 175 218 10 348 267 160 159 184 189 189 170 75
177 166 184 141 51 60 72 68 216 219 195 132 66 110 154 80 117 82 61 105 50 14 129 132 322 320 309 359 117 131 48 153 107 355 73 275 16 4 76 141 175 186 110 108 105
161 160 184 145 85 74 77 230 244 223 234 105 142 163 170 158 93 83 98 317 330 64 180 186 102 11 310 58 14 111 148 50 10 121 239 282 220 220 199 201 199 102 122 102 98
138 88 175 147 118 53 160 232 275 273 206 96 163 168 183 153 106 95 163 349 353 336 58 106 97 278 21 26 300 4 40 63 106 105 155 172 258 217 200 185 163 122 128 128 122
119 114 134 155 74 29 183 208 289 286 29 55 91 81 147 105 80 97 135 86 331 234 86 30 121 102 202 293 302 162 128 110 108 219 52 145 276 338 157 143 137 132 128 118 117
115 134 38 155 146 276 274 280 264 337 32 61 75 83 103 120 97 96 103 279 343 73 141 171 22 65 354 350 350 105 78 94 102 91 194 130 264 9 96 102 111 133 134 128 124
107 104 341 52 142 151 173 264 177 13 57 88 109 77 72 56 30 136 129 5 36 88 81 92 89 149 181 197 181 149 130 125 116 119 185 219 194 202 133 134 126 127 123 132 135
93 213 180 203 261 166 152 290 152 133 57 46 40 70 129 105 69 111 135 123 36 49 51 79 116 75 66 30 27 261 170 185 193 184 167 246 202 197 179 163 159 149 151 153 176
136 139 35 144 134 147 138 210 174 177 131 90 110 58 120 148 178 192 140 149 176 29 65 11 153 349 99 4 5 280 233 241 235 208 255 133 241 175 124 117 152 176 173 185 195
148 94 108 291 115 118 207 206 201 133 19 31 144 102 47 331 95 76 72 81 106 122 103 70 123 79 254 348 335 337 221 191 185 189 150 183 209 158 167 174 182 190 193 198 209